Weather History for KMLI - July, 2013

Change the Weather History Date:

Tuesday, July 9, 2013

  Actual Average Record
Temperature  
Mean Temperature 81 °F 76 °F  
Max Temperature 87 °F 86 °F 102 °F (1936)
Min Temperature 74 °F 65 °F 49 °F (1891)
Degree Days  
Heating Degree Days 0 0  
Month to date heating degree days 0 0  
Since 1 June heating degree days 27 19  
Since 1 July heating degree days 0 0  
Cooling Degree Days 16 11  
Month to date cooling degree days 78 95  
Year to date cooling degree days 371 385  
Since 1 June cooling degree days 281 309  
Growing Degree Days 30 (Base 50)    
Moisture  
Dew Point 73 °F    
Average Humidity 81    
Maximum Humidity 94    
Minimum Humidity 68    
Precipitation  
Precipitation 0.18 in 0.14 in 3.11 in (1879)
Month to date precipitation 0.73 1.36  
Year to date precipitation 30.02 19.71  
Snow  
Snow 0.00 in 0.00 in - ()
Month to date snowfall 0.0 0.0  
Since 1 June snowfall 0.0 0.0  
Since 1 July snowfall 0.0 0.0  
Snow Depth 0.00 in    
Sea Level Pressure  
Sea Level Pressure 29.94 in    
Wind  
Wind Speed 4 mph (SW)    
Max Wind Speed 15 mph    
Max Gust Speed 22 mph    
Visibility 8 miles    
Events Rain , Thunderstorm    
T = Trace of Precipitation, MM = Missing Value Source: NWS Daily Summary

Daily Weather History Graph

Daily Weather History Graph

Search for Another Location

Airport or City:

Trip Planner

Search our weather history database for the weather conditions in past years. The results will help you decide how hot, cold, wet, or windy it might be!

Date:

Astronomy

Jul. 09, 2013 Rise Set
Actual Time 5:37 AM CDT 8:37 PM CDT
Civil Twilight 5:03 AM CDT 9:10 PM CDT
Nautical Twilight 4:21 AM CDT 9:52 PM CDT
Astronomical Twilight 3:31 AM CDT 10:42 PM CDT
Moon 7:03 AM CDT (7/9) 9:12 PM CDT (7/9)
Length of Visible Light 16h 06m
Length of Day
15h 00m
New Moon, 2% of the Moon is Illuminated
Jul 9
New Moon
Jul 15
First Quarter
Jul 22
Full
Jul 29
Last Quarter
Aug 6
New

Hourly Weather History & Observations

Time (CDT) Temp. Heat Index Dew Point Humidity Pressure Visibility Wind Dir Wind Speed Gust Speed Precip Events Conditions
12:52 AM 77.0 °F - 72.0 °F 84% 29.97 in 9.0 mi Calm Calm - N/A   Clear
1:52 AM 75.0 °F - 72.0 °F 90% 29.96 in 8.0 mi East 3.5 mph - N/A   Clear
2:52 AM 75.0 °F - 72.0 °F 90% 29.97 in 7.0 mi Calm Calm - N/A   Clear
3:52 AM 75.9 °F - 73.0 °F 91% 29.97 in 7.0 mi Calm Calm - N/A   Partly Cloudy
4:52 AM 77.0 °F - 73.0 °F 88% 29.95 in 9.0 mi Calm Calm - N/A   Mostly Cloudy
5:52 AM 75.9 °F - 73.0 °F 91% 29.96 in 6.0 mi Calm Calm - 0.00 in Rain Light Rain
6:52 AM 78.1 °F - 72.0 °F 81% 29.95 in 9.0 mi SSW 4.6 mph - 0.00 in   Overcast
7:07 AM 77.0 °F - 71.6 °F 83% 29.98 in 2.0 mi WNW 8.1 mph - N/A Thunderstorm Haze
7:14 AM 75.2 °F - 71.6 °F 89% 29.98 in 1.0 mi Variable 3.5 mph - 0.13 in Rain , Thunderstorm Heavy Thunderstorms and Rain
7:18 AM 77.0 °F - 71.6 °F 83% 29.97 in 2.5 mi Calm Calm - 0.13 in Rain , Thunderstorm Light Thunderstorms and Rain
7:25 AM 77.0 °F - 71.6 °F 83% 29.98 in 10.0 mi South 6.9 mph - 0.13 in Thunderstorm Thunderstorm
7:52 AM 77.0 °F - 73.0 °F 88% 29.96 in 8.0 mi ESE 3.5 mph - 0.13 in Thunderstorm Mostly Cloudy
8:02 AM 78.8 °F - 73.4 °F 83% 29.97 in 8.0 mi Calm Calm - N/A   Mostly Cloudy
8:52 AM 78.1 °F - 73.0 °F 84% 29.97 in 4.0 mi West 5.8 mph - 0.05 in Rain Light Rain
9:04 AM 78.8 °F - 73.4 °F 83% 30.00 in 10.0 mi West 6.9 mph - 0.00 in Thunderstorm Mostly Cloudy
9:19 AM 78.8 °F - 71.6 °F 78% 30.01 in 10.0 mi WNW 12.7 mph - 0.00 in   Mostly Cloudy
9:31 AM 77.0 °F - 71.6 °F 83% 30.00 in 10.0 mi West 11.5 mph 21.9 mph 0.00 in   Mostly Cloudy
9:41 AM 77.0 °F - 71.6 °F 83% 29.99 in 10.0 mi NW 9.2 mph 18.4 mph 0.00 in   Mostly Cloudy
9:52 AM 75.9 °F - 71.1 °F 85% 29.96 in 10.0 mi Calm Calm - 0.00 in   Mostly Cloudy
10:52 AM 79.0 °F - 73.0 °F 82% 29.94 in 10.0 mi SSE 5.8 mph - 0.00 in   Clear
11:52 AM 80.1 °F 84.5 °F 73.9 °F 81% 29.99 in 10.0 mi NW 5.8 mph - N/A   Mostly Cloudy
12:52 PM 80.1 °F 84.5 °F 73.9 °F 81% 29.97 in 10.0 mi South 4.6 mph - 0.00 in   Partly Cloudy
1:52 PM 81.0 °F 86.2 °F 73.9 °F 79% 29.93 in 10.0 mi SSE 5.8 mph - 0.00 in   Clear
2:52 PM 84.0 °F 90.2 °F 73.0 °F 69% 29.91 in 10.0 mi SSE 9.2 mph - N/A   Clear
3:52 PM 86.0 °F 96.0 °F 75.9 °F 72% 29.89 in 10.0 mi SSW 9.2 mph 18.4 mph N/A   Clear
4:52 PM 87.1 °F 96.3 °F 75.0 °F 67% 29.87 in 10.0 mi SSW 10.4 mph - N/A   Clear
5:52 PM 87.1 °F 96.3 °F 75.0 °F 67% 29.86 in 10.0 mi SSW 11.5 mph - N/A   Clear
6:52 PM 87.1 °F 96.3 °F 75.0 °F 67% 29.86 in 10.0 mi WSW 6.9 mph - N/A   Clear
7:52 PM 84.9 °F 95.3 °F 77.0 °F 77% 29.86 in 10.0 mi WSW 3.5 mph - N/A   Clear
8:52 PM 80.1 °F 85.8 °F 77.0 °F 90% 29.86 in 10.0 mi Calm Calm - N/A   Partly Cloudy
9:52 PM 80.1 °F 85.4 °F 75.9 °F 87% 29.86 in 10.0 mi Calm Calm - N/A   Clear
10:52 PM 78.1 °F - 75.0 °F 90% 29.88 in 8.0 mi Calm Calm - N/A   Scattered Clouds
11:52 PM 78.1 °F - 75.0 °F 90% 29.87 in 8.0 mi Calm Calm - N/A   Partly Cloudy